This is the latest recevied weather packets stored in our database for station/object N4DBJ. If no packets are shown the sender has not sent any weather packets the latest 10 day(s).
| Time | Temp. | Humidity | Pressure | Rain* | Wind** | Luminosity | Snow |
|---|---|---|---|---|---|---|---|
| 1777990351 | 18.33° C | 73% | 1009.5 hPa | 0 mm | - | 204 W/m² | - |
| 1777990046 | 18.33° C | 74% | 1009.3 hPa | 0 mm | - | 203 W/m² | - |
| 1777989743 | 18.33° C | 74% | 1009.4 hPa | 0 mm | - | 221 W/m² | - |
| 1777989440 | 18.33° C | 75% | 1009.5 hPa | 0 mm | - | 242 W/m² | - |
| 1777989136 | 17.78° C | 76% | 1009.3 hPa | 0 mm | - | 234 W/m² | - |
| 1777988832 | 17.78° C | 76% | 1009.3 hPa | 0 mm | - | 194 W/m² | - |
| 1777988530 | 17.22° C | 77% | 1009.3 hPa | 0 mm | - | 173 W/m² | - |
| 1777988226 | 17.22° C | 77% | 1009.3 hPa | 0 mm | - | 165 W/m² | - |
| 1777987923 | 17.22° C | 76% | 1009.2 hPa | 0 mm | - | 149 W/m² | - |
| 1777987618 | 17.22° C | 78% | 1009.2 hPa | 0 mm | - | 130 W/m² | - |
| 1777987317 | 16.67° C | 78% | 1009 hPa | 0 mm | - | 124 W/m² | - |
| 1777987014 | 16.67° C | 77% | 1009.1 hPa | 0 mm | - | 120 W/m² | - |
| 1777986711 | 16.67° C | 78% | 1008.9 hPa | 0 mm | - | 117 W/m² | - |
| 1777986409 | 16.67° C | 78% | 1009.1 hPa | 0 mm | - | 111 W/m² | - |
| 1777986107 | 16.67° C | 78% | 1008.9 hPa | 0 mm | - | 114 W/m² | - |
| 1777985803 | 16.11° C | 79% | 1008.9 hPa | 0 mm | - | 113 W/m² | - |
| 1777985501 | 16.11° C | 79% | 1008.9 hPa | 0 mm | - | 113 W/m² | - |
| 1777985197 | 16.11° C | 79% | 1008.9 hPa | 0 mm | - | 105 W/m² | - |
| 1777984894 | 16.11° C | 80% | 1008.9 hPa | 0 mm | - | 101 W/m² | - |
| 1777984589 | 16.11° C | 81% | 1008.6 hPa | 0 mm | - | 88 W/m² | - |
| 1777984286 | 15.56° C | 79% | 1008.7 hPa | 0 mm | - | 76 W/m² | - |
| 1777983983 | 15.56° C | 79% | 1009 hPa | 0 mm | - | 67 W/m² | - |
| 1777983680 | 15.56° C | 80% | 1008.8 hPa | 0 mm | - | 63 W/m² | - |
| 1777983377 | 15.56° C | 81% | 1009 hPa | 0 mm | - | 55 W/m² | - |
| 1777983074 | 15.56° C | 80% | 1009 hPa | 0 mm | - | 51 W/m² | - |
* Rain latest hour (hover to see other rain measurements)
** Current wind speed in m/s (hover to see current wind gust speed)